Pittsfield, MA

6:19 AM EDT on May 28, 2018 (GMT -0400)
Pittsfield Municipal

Weather History for KPSF - December, 2013

Change the Weather History Date:

Monday, December 2, 2013

  Actual Average Record
Temperature  
Mean Temperature 32 °F 32 °F  
Max Temperature 38 °F 39 °F 62 °F (1934)
Min Temperature 25 °F 25 °F 2 °F (1930)
Degree Days  
Heating Degree Days 33 33  
Month to date heating degree days 66 66  
Since 1 July heating degree days 1746 1717  
Cooling Degree Days 0 0  
Month to date cooling degree days 0 0  
Year to date cooling degree days 433 290  
Moisture  
Dew Point 29 °F    
Average Humidity 88    
Maximum Humidity 100    
Minimum Humidity 76    
Precipitation  
Precipitation 0.00 in 0.10 in 0.85 in (1942)
Month to date precipitation T 0.19  
Year to date precipitation 36.81 42.57  
Sea Level Pressure  
Sea Level Pressure 29.92 in    
Wind  
Wind Speed 1 mph (NNW)    
Max Wind Speed 7 mph    
Max Gust Speed 9 mph    
Visibility 6 miles    
Events Fog    
T = Trace of Precipitation, MM = Missing Value Source: NWS Daily Summary

Daily Weather History Graph

Daily Weather History Graph

Search for Another Location

Airport or City:

Astronomy

Dec. 02, 2013 Rise Set
Actual Time 7:04 AM EST 4:21 PM EST
Civil Twilight 6:32 AM EST 4:52 PM EST
Nautical Twilight 5:57 AM EST 5:27 PM EST
Astronomical Twilight 5:23 AM EST 6:01 PM EST
Moon 6:25 AM EST (12/2) 4:22 PM EST (12/2)
Length of Visible Light 10h 19m
Length of Day
9h 16m
Waning Crescent, 0% of the Moon is Illuminated
Dec 2
Waning Crescent
Dec 2
New
Dec 9
First Quarter
Dec 17
Full
Dec 25
Last Quarter

Hourly Weather History & Observations

Time (EST) Temp. Windchill Dew Point Humidity Pressure Visibility Wind Dir Wind Speed Gust Speed Precip Events Conditions
12:54 AM 30.0 °F - 28.9 °F 96% 29.99 in 4.0 mi Calm Calm - N/A   Mostly Cloudy
1:54 AM 30.0 °F - 28.9 °F 96% 29.98 in 3.0 mi Calm Calm - N/A   Mostly Cloudy
2:54 AM 30.0 °F - 28.9 °F 96% 29.97 in 5.0 mi Calm Calm - N/A   Overcast
3:54 AM 30.9 °F - 30.0 °F 96% 29.96 in 6.0 mi Calm Calm - N/A   Overcast
4:54 AM 30.9 °F - 30.0 °F 96% 29.96 in 5.0 mi Calm Calm - N/A   Overcast
5:54 AM 30.0 °F 26.5 °F 28.0 °F 92% 29.96 in 4.0 mi North 3.5 mph - N/A   Overcast
6:22 AM 30.2 °F - 28.4 °F 93% 29.92 in 2.5 mi Calm Calm - N/A   Scattered Clouds
6:29 AM 30.2 °F - 28.4 °F 93% 29.93 in 3.0 mi Calm Calm - N/A   Scattered Clouds
6:54 AM 30.0 °F - 28.0 °F 92% 29.96 in 3.0 mi Calm Calm - N/A   Overcast
7:18 AM 30.2 °F - 28.4 °F 93% 29.92 in 2.0 mi Calm Calm - N/A   Overcast
7:30 AM 28.4 °F - 28.4 °F 100% 29.92 in 3.0 mi Calm Calm - N/A   Mostly Cloudy
7:54 AM 30.0 °F - 28.9 °F 96% 29.96 in 3.0 mi Calm Calm - N/A   Overcast
8:05 AM 30.2 °F - 30.2 °F 100% 29.93 in 2.5 mi Calm Calm - N/A   Overcast
8:31 AM 32.0 °F - 30.2 °F 93% 29.93 in 3.0 mi Calm Calm - N/A   Overcast
8:54 AM 33.1 °F - 30.9 °F 92% 29.96 in 5.0 mi Calm Calm - N/A   Overcast
9:54 AM 34.0 °F 29.8 °F 30.9 °F 89% 29.96 in 8.0 mi NE 4.6 mph - N/A   Overcast
10:10 AM 35.6 °F - 30.2 °F 81% 29.93 in 9.0 mi Calm Calm - N/A   Overcast
10:31 AM 35.6 °F - 32.0 °F 87% 29.93 in 10.0 mi Calm Calm - N/A   Overcast
10:54 AM 36.0 °F - 32.0 °F 86% 29.95 in 10.0 mi Calm Calm - N/A   Overcast
11:54 AM 37.0 °F - 32.0 °F 82% 29.93 in 10.0 mi Calm Calm - N/A   Overcast
12:51 PM 37.4 °F 34.9 °F 30.2 °F 75% 29.90 in 10.0 mi West 3.5 mph - N/A   Overcast
12:54 PM 37.9 °F 35.5 °F 30.9 °F 76% 29.92 in 10.0 mi West 3.5 mph - N/A   Overcast
1:54 PM 37.9 °F 35.5 °F 30.9 °F 76% 29.90 in 10.0 mi ESE 3.5 mph - N/A   Overcast
2:54 PM 37.0 °F - 32.0 °F 82% 29.88 in 10.0 mi Calm Calm - N/A   Overcast
3:32 PM 37.4 °F - 32.0 °F 81% 29.86 in 10.0 mi Calm Calm - N/A   Overcast
3:54 PM 37.0 °F - 32.0 °F 82% 29.89 in 10.0 mi Calm Calm - N/A   Overcast
4:20 PM 37.4 °F - 32.0 °F 81% 29.87 in 10.0 mi Calm Calm - N/A   Overcast
4:46 PM 33.8 °F - 30.2 °F 87% 29.88 in 10.0 mi Calm Calm - N/A   Mostly Cloudy
4:54 PM 34.0 °F - 30.9 °F 89% 29.91 in 10.0 mi Calm Calm - N/A   Mostly Cloudy
5:54 PM 34.0 °F - 30.0 °F 85% 29.92 in 10.0 mi Calm Calm - N/A   Overcast
6:54 PM 32.0 °F - 30.0 °F 92% 29.92 in 7.0 mi Calm Calm - N/A   Overcast
7:54 PM 30.9 °F - 28.9 °F 92% 29.91 in 5.0 mi Calm Calm - N/A   Clear
8:54 PM 28.9 °F - 26.1 °F 89% 29.91 in 4.0 mi Calm Calm - N/A   Scattered Clouds
9:07 PM 28.4 °F - 26.6 °F 93% 29.88 in 1.8 mi Calm Calm - N/A   Clear
9:45 PM 26.6 °F - 26.6 °F 100% 29.88 in 0.8 mi Calm Calm - N/A   Mist
9:54 PM 28.0 °F - 26.1 °F 92% 29.91 in 0.8 mi Calm Calm - N/A   Mist
10:04 PM 28.4 °F - 28.4 °F 100% 29.88 in 0.2 mi Calm Calm - N/A Fog Light Freezing Fog
10:54 PM 27.0 °F - 26.1 °F 96% 29.90 in 0.2 mi Calm Calm - N/A Fog Light Freezing Fog
11:19 PM 26.6 °F - 24.8 °F 93% 29.87 in 0.2 mi Calm Calm - N/A Fog Light Freezing Fog
11:54 PM 26.1 °F - 25.0 °F 96% 29.90 in 0.2 mi Calm Calm - N/A Fog Light Freezing Fog